User: anonymous   Login
Location: Unspecified
(0.0000°N, 0.0000°E)
Time: 09:24:58
(UTC+00:00)
Language:

ISIS 1 - Orbit

View from above orbital plane
View from above orbital plane
View from above satellite
View from above satellite

Ground track
Ground track

The orbit data is extracted from the following two-line orbital elements,

1  3669U 69009A   18022.59385249 +.00000062 +00000-0 +44979-4 0  9991
2  3669 088.4312 124.0476 1710563 314.1260 033.0877 11.29449218013391
Epoch (UTC): 22 January 2018 14:15:08
Eccentricity: 0.1710563
inclination: 88.4312°
perigee height: 577 km
apogee height: 3448 km
right ascension of ascending node: 124.0476°
argument of perigee: 314.1260°
revolutions per day: 11.29449218
mean anomaly at epoch: 33.0877°
orbit number at epoch: 1339

The dashed part of the orbit path shows where the satellite is in the earth's shadow,  

DLR